period_start,C,m1,H,J0,J1,J2,J3,J4,J5,JA,JB,JC,JD,JJ,JK,JN,#
2014-10-14 00:01:34,0.01,1.66,0.00,23.23,27.97,30.96,4.77,26.38,1013.69,2031.02,2780.03,2859.97,3078.93,349.66,346.10,22.04,0000 0000 0000 0000 000000
2014-10-14 00:06:35,0.06,1.66,0.00,23.18,27.97,30.97,4.79,26.38,1013.69,2031.01,2779.87,2859.55,3078.26,350.14,346.76,22.07,0000 0000 0000 0000 000000
2014-10-14 00:11:36,0.04,1.66,0.00,23.17,27.97,30.92,4.84,26.48,1013.69,2031.01,2779.06,2859.02,3077.99,350.57,347.13,22.10,0000 0000 0000 0000 000000
2014-10-14 00:16:38,0.05,1.66,0.00,23.16,27.97,30.91,4.74,26.42,1013.69,2031.00,2778.21,2858.88,3077.56,349.49,345.95,22.13,0000 0000 0000 0000 000000
2014-10-14 00:21:39,0.05,1.66,0.00,23.16,27.97,30.92,4.85,26.57,1013.69,2031.03,2778.00,2858.22,3077.03,350.44,346.92,22.16,0000 0000 0000 0000 000000
2014-10-14 00:26:41,0.02,1.66,0.00,23.18,27.97,30.93,4.75,26.52,1013.69,2031.01,2777.50,2858.00,3076.98,349.71,346.33,22.19,0000 0000 0000 0000 000000
2014-10-14 00:31:42,0.02,1.66,0.00,23.24,27.97,30.94,4.76,26.58,1013.69,2031.00,2777.01,2857.97,3076.68,350.01,346.32,22.22,0000 0000 0000 0000 000000
2014-10-14 00:36:43,0.08,1.67,0.00,23.19,27.97,30.91,4.94,26.68,1013.69,2031.02,2776.66,2857.48,3076.07,350.79,347.18,22.25,0000 0000 0000 0000 000000
2014-10-14 00:41:45,0.01,1.67,0.00,23.22,27.97,30.87,4.82,26.55,1013.69,2031.02,2776.02,2857.01,3076.00,350.07,346.19,22.28,0000 0000 0000 0000 000000
2014-10-14 00:46:46,0.01,1.67,0.00,23.22,27.97,30.89,4.78,26.48,1013.69,2031.01,2775.99,2857.00,3075.83,350.05,346.40,22.31,0000 0000 0000 0000 000000
2014-10-14 00:51:47,0.07,1.67,0.00,23.19,27.97,30.88,4.81,26.58,1013.69,2031.02,2775.33,2856.80,3075.09,350.00,346.40,22.34,0000 0000 0000 0000 000000
2014-10-14 00:56:48,0.04,1.67,0.00,23.23,27.97,30.89,4.68,26.46,1013.69,2031.03,2774.98,2856.06,3074.99,349.80,346.13,22.37,0000 0000 0000 0000 000000
2014-10-14 01:01:50,0.05,1.67,0.00,23.19,27.97,30.88,4.80,26.52,1013.69,2031.03,2774.22,2855.99,3074.49,350.27,346.73,22.40,0000 0000 0000 0000 000000
2014-10-14 01:06:51,0.05,1.67,0.00,23.23,27.97,30.89,4.71,26.47,1013.69,2031.04,2773.83,2855.51,3074.01,350.26,346.68,22.42,0000 0000 0000 0000 000000
2014-10-14 01:11:53,0.06,1.68,0.00,23.22,27.97,30.89,4.79,26.45,1013.68,2031.03,2773.03,2855.01,3073.53,350.16,346.56,22.45,0000 0000 0000 0000 000000
2014-10-14 01:16:54,0.08,1.68,0.00,23.18,27.97,30.86,4.80,26.91,1013.68,2031.02,2772.22,2854.49,3073.00,349.95,346.31,22.48,0000 0000 0000 0000 000000
2014-10-14 01:21:55,0.06,1.68,0.00,23.19,27.97,30.89,4.80,26.99,1013.65,2031.02,2771.65,2854.01,3072.46,349.60,346.03,22.51,0000 0000 0000 0000 000000
2014-10-14 01:26:57,0.04,1.68,0.00,23.24,27.97,30.85,4.80,26.96,1013.66,2031.04,2771.00,2853.74,3072.01,349.96,346.37,22.54,0000 0000 0000 0000 000000
2014-10-14 01:31:58,0.09,1.68,0.00,23.26,27.97,30.83,4.82,26.92,1013.68,2031.04,2770.21,2853.03,3071.35,349.63,346.18,22.57,0000 0000 0000 0000 000000
2014-10-14 01:36:59,0.05,1.68,0.00,23.23,27.97,30.83,4.79,26.90,1013.67,2031.06,2769.50,2852.82,3071.00,349.69,346.11,22.60,0000 0000 0000 0000 000000
2014-10-14 01:42:00,0.05,1.69,0.00,23.23,27.96,30.84,4.77,26.90,1013.62,2031.03,2768.92,2852.07,3070.63,349.94,346.22,22.63,0000 0000 0000 0000 000000
2014-10-14 01:47:02,0.05,1.69,0.00,23.27,27.95,30.83,4.74,26.89,1013.55,2031.09,2768.18,2852.00,3070.04,350.19,346.64,22.66,0000 0000 0000 0000 000000
2014-10-14 01:52:03,0.03,1.69,0.00,23.27,27.95,30.84,4.85,26.73,1013.54,2031.17,2767.97,2851.82,3069.99,350.33,346.61,22.69,0000 0000 0000 0000 000000
2014-10-14 01:57:05,0.09,1.69,0.00,23.25,27.95,30.81,4.76,26.80,1013.43,2031.20,2767.20,2851.09,3069.47,349.89,346.49,22.72,0000 0000 0000 0000 000000
2014-10-14 02:02:06,0.03,1.69,0.00,23.26,27.95,30.81,4.79,26.75,1013.58,2031.32,2766.99,2851.00,3069.02,350.03,346.20,22.75,0000 0000 0000 0000 000000
2014-10-14 02:07:07,0.03,1.70,0.00,23.26,27.95,30.81,4.78,26.73,1013.55,2031.46,2766.55,2850.94,3068.99,350.45,346.67,22.78,0000 0000 0000 0000 000000
2014-10-14 02:12:09,0.08,1.70,0.00,23.27,27.95,30.81,4.84,26.78,1013.49,2031.64,2766.04,2850.50,3068.93,350.39,346.68,22.81,0000 0000 0000 0000 000000
2014-10-14 02:17:10,0.06,1.70,0.00,23.27,27.95,30.80,4.69,26.79,1013.58,2031.77,2765.82,2850.04,3068.21,349.30,345.57,22.84,0000 0000 0000 0000 000000
2014-10-14 02:22:11,0.04,1.70,0.00,23.27,27.95,30.78,4.67,26.69,1013.58,2031.80,2765.10,2849.99,3068.00,350.27,346.65,22.86,0000 0000 0000 0000 000000
2014-10-14 02:27:13,0.00,1.70,0.00,23.29,27.95,30.78,4.83,26.75,1013.54,2031.79,2764.97,2849.87,3067.98,350.38,346.63,22.89,0000 0000 0000 0000 000000
2014-10-14 02:32:14,0.08,1.70,0.00,23.29,27.94,30.76,4.75,26.66,1013.60,2031.81,2764.34,2849.22,3067.47,349.99,346.21,22.92,0000 0000 0000 0000 000000
2014-10-14 02:37:15,0.03,1.70,0.00,23.26,27.93,30.76,4.79,26.75,1013.57,2031.85,2764.00,2849.01,3067.02,350.10,346.56,22.95,0000 0000 0000 0000 000000
2014-10-14 02:42:16,0.02,1.70,0.00,23.29,27.92,30.75,4.83,26.78,1013.53,2031.93,2763.90,2849.00,3067.00,350.05,346.34,22.98,0000 0000 0000 0000 000000
2014-10-14 02:47:17,0.04,1.71,0.00,23.29,27.92,30.76,4.77,26.82,1013.44,2031.95,2763.19,2848.90,3066.91,350.02,346.28,23.01,0000 0000 0000 0000 000000
2014-10-14 02:52:19,0.07,1.71,0.00,23.31,27.92,30.74,4.84,26.77,1013.38,2031.95,2763.00,2848.26,3066.27,350.47,346.69,23.04,0000 0000 0000 0000 000000
2014-10-14 02:57:20,0.03,1.71,0.00,23.29,27.92,30.74,4.78,26.76,1013.29,2031.97,2762.66,2848.01,3066.01,350.10,346.25,23.07,0000 0000 0000 0000 000000
2014-10-14 03:02:21,0.01,1.71,0.00,23.29,27.92,30.73,4.73,26.63,1013.32,2031.97,2762.03,2847.99,3065.99,349.92,346.18,23.10,0000 0000 0000 0000 000000
2014-10-14 03:07:22,0.03,1.71,0.00,23.33,27.92,30.71,4.76,26.73,1013.51,2031.97,2761.92,2847.86,3065.68,349.84,346.17,23.13,0000 0000 0000 0000 000000
2014-10-14 03:12:24,0.08,1.71,0.00,23.29,27.92,30.74,4.73,26.55,1013.55,2031.98,2761.25,2847.31,3065.11,349.82,346.20,23.16,0000 0000 0000 0000 000000
2014-10-14 03:17:25,0.01,1.71,0.00,23.29,27.92,30.70,4.77,26.61,1013.55,2031.98,2761.01,2847.02,3065.01,349.97,346.04,23.19,0000 0000 0000 0000 000000
2014-10-14 03:22:26,-0.00,1.71,0.00,23.32,27.92,30.72,4.86,26.74,1013.58,2031.98,2760.98,2847.00,3065.00,349.97,346.37,23.22,0000 0000 0000 0000 000000
2014-10-14 03:27:27,0.03,1.71,0.00,23.33,27.92,30.72,4.79,26.59,1013.64,2031.99,2760.50,2846.96,3064.83,350.49,346.77,23.25,0000 0000 0000 0000 000000
2014-10-14 03:32:28,0.06,1.72,0.00,23.31,27.92,30.71,4.72,26.57,1013.66,2031.98,2760.01,2846.38,3064.10,349.70,346.09,23.27,0000 0000 0000 0000 000000
2014-10-14 03:37:29,0.03,1.72,0.00,23.28,27.91,30.71,4.78,26.73,1013.63,2031.99,2759.76,2846.05,3064.00,350.10,346.29,23.30,0000 0000 0000 0000 000000
2014-10-14 03:42:31,0.02,1.72,0.00,23.31,27.90,30.67,4.72,26.59,1013.58,2031.99,2759.10,2846.00,3063.98,349.57,345.71,23.33,0000 0000 0000 0000 000000
2014-10-14 03:47:32,0.01,1.72,0.00,23.30,27.90,30.66,4.75,26.62,1013.59,2031.99,2759.00,2845.97,3063.77,349.69,346.02,23.36,0000 0000 0000 0000 000000
2014-10-14 03:52:34,0.05,1.72,0.00,23.32,27.90,30.68,4.77,26.67,1013.57,2031.99,2758.88,2845.61,3063.15,349.59,346.11,23.39,0000 0000 0000 0000 000000
2014-10-14 03:57:35,0.05,1.72,0.00,23.32,27.90,30.68,4.83,26.74,1013.63,2031.99,2758.14,2845.05,3063.00,350.55,347.00,23.42,0000 0000 0000 0000 000000
2014-10-14 04:02:36,0.00,1.72,0.00,23.35,27.90,30.69,4.84,26.60,1013.57,2031.99,2758.00,2845.00,3062.93,350.79,347.07,23.45,0000 0000 0000 0000 000000
2014-10-14 04:07:37,0.05,1.72,0.00,23.31,27.90,30.68,4.80,26.63,1013.65,2031.99,2757.64,2844.93,3062.37,350.17,346.47,23.48,0000 0000 0000 0000 000000
2014-10-14 04:12:39,0.05,1.72,0.00,23.29,27.90,30.65,4.75,26.75,1013.58,2031.99,2757.02,2844.32,3062.00,350.00,346.31,23.51,0000 0000 0000 0000 000000
2014-10-14 04:17:40,0.03,1.72,0.00,23.30,27.90,30.63,4.80,26.75,1013.41,2031.99,2756.66,2844.00,3061.89,349.43,345.99,23.54,0000 0000 0000 0000 000000
2014-10-14 04:22:42,0.03,1.73,0.00,23.30,27.89,30.64,4.71,26.66,1013.52,2031.99,2756.04,2843.96,3061.20,349.98,346.25,23.57,0000 0000 0000 0000 000000
2014-10-14 04:27:43,0.04,1.73,0.00,23.28,27.88,30.65,4.84,26.69,1013.54,2031.99,2755.95,2843.52,3061.00,349.99,346.20,23.60,0000 0000 0000 0000 000000
2014-10-14 04:32:44,0.04,1.73,0.00,23.27,27.87,30.62,4.75,26.62,1013.65,2031.99,2755.26,2843.06,3060.98,349.23,345.60,23.63,0000 0000 0000 0000 000000
2014-10-14 04:37:45,0.03,1.73,0.00,23.28,27.87,30.61,4.74,26.70,1013.68,2031.99,2755.00,2842.99,3060.54,349.92,346.39,23.66,0000 0000 0000 0000 000000
2014-10-14 04:42:46,0.04,1.73,0.00,23.27,27.87,30.61,4.87,26.75,1013.68,2032.01,2754.50,2842.85,3060.03,350.32,346.68,23.68,0000 0000 0000 0000 000000
2014-10-14 04:47:48,0.04,1.73,0.00,23.32,27.87,30.60,4.84,26.64,1013.69,2032.00,2753.98,2842.13,3059.92,350.46,346.85,23.71,0000 0000 0000 0000 000000
2014-10-14 04:52:49,0.05,1.73,0.00,23.34,27.85,30.56,4.84,26.74,1013.69,2032.01,2753.51,2842.00,3059.30,350.34,346.76,23.74,0000 0000 0000 0000 000000
2014-10-14 04:57:50,0.02,1.74,0.00,23.31,27.85,30.57,4.86,26.69,1013.69,2032.04,2753.01,2841.94,3059.01,350.13,346.59,23.77,0000 0000 0000 0000 000000
2014-10-14 05:02:51,0.06,1.74,0.00,23.29,27.85,30.58,4.87,26.73,1013.69,2032.02,2752.69,2841.24,3058.89,350.46,346.83,23.80,0000 0000 0000 0000 000000
2014-10-14 05:07:53,0.04,1.74,0.00,23.34,27.84,30.57,4.67,26.58,1013.69,2032.03,2752.06,2841.00,3058.28,349.85,345.92,23.83,0000 0000 0000 0000 000000
2014-10-14 05:12:54,0.01,1.74,0.00,23.33,27.83,30.54,4.73,26.72,1013.69,2032.04,2751.99,2840.99,3058.02,349.75,345.98,23.86,0000 0000 0000 0000 000000
2014-10-14 05:17:55,0.02,1.74,0.00,23.29,27.82,30.53,4.87,26.65,1013.69,2032.04,2751.69,2840.84,3057.99,349.99,346.52,23.89,0000 0000 0000 0000 000000
2014-10-14 05:22:56,0.10,1.74,0.00,23.28,27.82,30.53,4.73,26.63,1013.68,2032.04,2750.87,2840.04,3057.23,349.95,346.35,23.92,0000 0000 0000 0000 000000
2014-10-14 05:27:58,0.12,1.75,0.00,23.36,27.81,30.51,4.90,26.72,1013.68,2032.04,2749.78,2839.13,3056.27,350.32,346.50,23.95,0000 0000 0000 0000 000000
2014-10-14 05:32:59,0.06,1.75,0.00,23.29,27.80,30.51,4.94,26.74,1013.69,2032.02,2748.94,2838.66,3055.82,350.67,346.93,23.98,0000 0000 0000 0000 000000
2014-10-14 05:38:00,0.13,1.75,0.00,23.25,27.80,30.51,4.73,26.66,1013.69,2032.02,2747.76,2837.75,3054.73,349.90,346.19,24.01,0000 0000 0000 0000 000000
2014-10-14 05:43:02,0.09,1.75,0.00,23.27,27.78,30.51,4.81,26.66,1013.69,2032.07,2746.68,2837.00,3053.98,350.46,346.81,24.04,0000 0000 0000 0000 000000
2014-10-14 05:48:03,0.11,1.76,0.00,23.29,27.77,30.50,4.78,26.62,1013.69,2032.18,2745.86,2836.43,3053.25,349.66,345.86,24.07,0000 0000 0000 0000 000000
2014-10-14 05:53:04,0.16,1.76,0.00,23.25,27.77,30.50,4.69,26.52,1013.69,2032.21,2744.47,2835.47,3052.23,349.53,346.04,24.09,0000 0000 0000 0000 000000
2014-10-14 05:58:05,0.13,1.77,0.00,23.29,27.75,30.49,4.75,26.52,1013.68,2032.32,2743.14,2834.38,3051.07,349.54,345.85,24.12,0000 0000 0000 0000 000000
2014-10-14 06:03:07,0.16,1.77,0.00,23.31,27.75,30.47,4.70,26.49,1013.60,2032.67,2742.14,2833.76,3050.17,349.85,346.13,24.15,0000 0000 0000 0000 000000
2014-10-14 06:08:08,0.10,1.77,0.00,23.28,27.74,30.47,4.78,26.57,1013.57,2032.84,2741.14,2832.97,3049.43,350.03,346.53,24.18,0000 0000 0000 0000 000000
2014-10-14 06:13:10,0.11,1.78,0.00,23.24,27.72,30.46,4.84,26.63,1013.64,2032.88,2740.27,2832.17,3048.64,350.17,346.55,24.21,0000 0000 0000 0000 000000
2014-10-14 06:18:11,0.09,1.78,0.00,23.27,27.72,30.46,4.92,26.67,1013.60,2032.80,2739.29,2831.33,3047.82,350.64,346.98,24.24,0000 0000 0000 0000 000000
2014-10-14 06:23:12,0.13,1.78,0.00,23.28,27.71,30.42,4.72,26.52,1013.62,2032.92,2738.32,2830.59,3046.84,349.36,345.70,24.27,0000 0000 0000 0000 000000
2014-10-14 06:28:13,0.13,1.79,0.00,23.26,27.70,30.43,4.74,26.52,1013.65,2032.92,2737.06,2829.57,3045.76,349.76,345.97,24.30,0000 0000 0000 0000 000000
2014-10-14 06:33:14,0.14,1.79,0.00,23.28,27.70,30.42,4.80,26.69,1013.66,2032.90,2735.66,2828.49,3044.58,350.06,346.31,24.33,0000 0000 0000 0000 000000
2014-10-14 06:38:15,0.20,1.80,0.00,23.28,27.68,30.44,4.77,26.66,1013.67,2032.93,2733.83,2827.11,3043.01,349.83,346.34,24.36,0000 0000 0000 0000 000000
2014-10-14 06:43:17,0.23,1.80,0.00,23.26,27.67,30.42,4.87,26.67,1013.67,2032.97,2731.66,2825.41,3041.16,350.53,346.90,24.39,0000 0000 0000 0000 000000
2014-10-14 06:48:18,0.30,1.81,0.00,23.32,27.67,30.39,4.91,26.64,1013.66,2032.97,2728.98,2823.25,3038.80,350.50,346.78,24.42,0000 0000 0000 0000 000000
2014-10-14 06:53:19,0.48,1.82,0.00,23.31,27.66,30.39,4.86,26.48,1013.67,2032.97,2724.87,2820.13,3035.28,350.77,347.06,24.45,0000 0000 0000 0000 000000
2014-10-14 06:58:20,0.49,1.84,0.00,23.28,27.65,30.40,4.77,26.57,1013.68,2032.96,2719.79,2816.28,3031.00,350.36,346.94,24.48,0000 0000 0000 0000 000000
2014-10-14 07:03:21,0.46,1.85,0.00,23.28,27.65,30.40,4.70,26.49,1013.69,2032.98,2715.57,2813.24,3027.58,349.49,345.86,24.51,0000 0000 0000 0000 000000
2014-10-14 07:08:23,0.68,1.87,0.00,23.28,27.65,30.39,4.72,26.51,1013.69,2032.99,2709.34,2808.51,3022.43,349.91,346.25,24.53,0000 0000 0000 0000 000000
2014-10-14 07:13:24,0.95,1.89,0.00,23.26,27.64,30.38,4.67,26.44,1013.69,2032.99,2700.67,2801.95,3015.44,349.36,345.81,24.56,0000 0000 0000 0000 000000
2014-10-14 07:18:26,1.13,1.92,0.00,23.27,27.62,30.39,4.81,26.61,1013.69,2032.97,2689.84,2793.78,3006.89,350.29,346.55,24.59,0000 0000 0000 0000 000000
2014-10-14 07:23:27,0.84,1.95,0.00,23.29,27.62,30.42,4.78,26.47,1013.69,2032.97,2681.16,2787.11,2999.88,350.24,346.61,24.62,0000 0000 0000 0000 000000
2014-10-14 07:28:29,0.78,1.98,0.43,23.26,27.62,30.38,4.75,26.48,1013.69,2032.96,2673.50,2781.44,2993.85,350.03,346.41,24.65,0000 0000 0000 0000 000000
2014-10-14 07:33:30,0.76,2.00,1.00,23.24,27.62,30.40,4.77,26.57,1013.69,2032.98,2666.11,2776.13,2988.26,349.97,346.31,24.68,0000 0000 0000 0000 000000
2014-10-14 07:38:31,0.82,2.02,1.00,23.25,27.61,30.39,4.75,26.73,1013.69,2032.98,2658.47,2770.16,2981.91,349.51,345.74,24.71,0000 0000 0000 0000 000000
2014-10-14 07:43:32,0.78,2.05,1.00,23.29,27.60,30.36,4.80,26.53,1013.69,2032.98,2651.21,2764.74,2976.13,349.86,346.21,24.74,0000 0000 0000 0000 000000
2014-10-14 07:48:33,1.01,2.07,1.00,23.27,27.60,30.36,4.78,26.67,1013.69,2032.97,2642.05,2757.65,2968.53,349.92,346.34,24.77,0000 0000 0000 0000 000000
2014-10-14 07:53:35,1.10,2.11,1.00,23.26,27.60,30.39,4.84,26.61,1013.70,2032.97,2632.19,2750.09,2960.44,350.30,346.61,24.80,0000 0000 0000 0000 000000
2014-10-14 07:58:36,0.95,2.14,1.00,23.27,27.60,30.38,4.82,26.62,1013.70,2032.98,2623.00,2742.91,2952.80,350.43,346.95,24.83,0000 0000 0000 0000 000000
2014-10-14 08:03:37,0.72,2.16,1.00,23.26,27.59,30.38,4.69,26.52,1013.70,2032.97,2615.89,2737.32,2946.91,349.55,345.94,24.86,0000 0000 0000 0000 000000
2014-10-14 08:08:39,0.65,2.18,1.00,23.24,27.57,30.35,4.76,26.61,1013.69,2032.98,2610.01,2732.62,2941.99,350.06,346.50,24.89,0000 0000 0000 0000 000000
2014-10-14 08:13:40,0.66,2.20,1.00,23.27,27.57,30.38,4.80,26.60,1013.70,2032.98,2604.23,2727.94,2937.07,350.17,346.52,24.91,0000 0000 0000 0000 000000
2014-10-14 08:18:41,0.52,2.22,1.00,23.27,27.57,30.38,4.88,26.68,1013.71,2032.97,2599.06,2724.01,2932.83,350.21,346.74,24.94,0000 0000 0000 0000 000000
2014-10-14 08:23:42,0.46,2.23,1.00,23.22,27.57,30.37,4.75,26.63,1013.70,2032.98,2594.98,2720.87,2929.45,349.84,346.36,24.97,0000 0000 0000 0000 000000
2014-10-14 08:28:43,0.43,2.24,1.00,23.20,27.57,30.37,4.75,26.68,1013.74,2032.99,2590.91,2717.63,2926.10,349.99,346.34,25.00,0000 0000 0000 0000 000000
2014-10-14 08:33:45,0.49,2.25,1.00,23.22,27.57,30.39,4.87,26.77,1013.85,2032.99,2586.87,2714.46,2922.72,350.73,347.04,25.03,0000 0000 0000 0000 000000
2014-10-14 08:38:46,0.73,2.27,1.00,23.25,27.57,30.38,4.78,26.71,1013.73,2032.96,2580.46,2709.52,2917.47,349.92,346.50,25.06,0000 0000 0000 0000 000000
2014-10-14 08:43:47,0.61,2.29,1.00,23.23,27.57,30.38,4.72,26.62,1013.73,2032.97,2574.66,2705.02,2912.72,350.07,346.50,25.09,0000 0000 0000 0000 000000
2014-10-14 08:48:48,0.44,2.31,1.00,23.24,27.57,30.40,4.82,26.73,1013.76,2032.98,2570.40,2701.82,2909.28,350.19,346.62,25.12,0000 0000 0000 0000 000000
2014-10-14 08:53:50,0.45,2.32,1.00,23.24,27.57,30.41,4.80,26.63,1013.75,2032.98,2566.53,2698.84,2906.10,350.29,346.62,25.15,0000 0000 0000 0000 000000
2014-10-14 08:58:51,0.63,2.34,1.00,23.24,27.56,30.40,4.70,26.69,1013.83,2032.98,2561.46,2694.71,2901.66,349.74,346.10,25.18,0000 0000 0000 0000 000000
2014-10-14 09:03:52,0.64,2.36,1.00,23.19,27.56,30.40,4.85,26.66,1013.87,2032.98,2555.63,2690.13,2896.76,350.50,347.02,25.21,0000 0000 0000 0000 000000
2014-10-14 09:08:54,0.50,2.37,1.00,23.23,27.56,30.40,4.81,26.71,1013.82,2032.98,2550.82,2686.52,2892.83,349.89,346.28,25.24,0000 0000 0000 0000 000000
2014-10-14 09:13:55,0.48,2.39,1.00,23.23,27.56,30.39,4.74,26.68,1013.80,2032.99,2546.48,2683.33,2889.37,349.57,345.99,25.27,0000 0000 0000 0000 000000
2014-10-14 09:18:56,0.35,2.40,1.00,23.22,27.56,30.39,4.68,26.64,1013.78,2032.99,2543.11,2680.73,2886.60,350.10,346.67,25.30,0000 0000 0000 0000 000000
2014-10-14 09:23:57,0.34,2.41,1.00,23.22,27.56,30.38,4.68,26.57,1013.82,2032.99,2539.97,2678.45,2884.17,349.63,346.18,25.33,0000 0000 0000 0000 000000
2014-10-14 09:28:59,0.35,2.42,0.47,23.24,27.57,30.38,4.79,26.63,1013.94,2032.99,2536.69,2676.10,2881.63,350.03,346.44,25.35,0000 0000 0000 0000 000000
2014-10-14 09:34:00,0.37,2.43,0.00,23.23,27.57,30.40,4.74,26.62,1014.09,2032.99,2533.35,2673.64,2879.07,349.70,346.36,25.38,0000 0000 0000 0000 000000
2014-10-14 09:39:01,0.39,2.44,0.00,23.22,27.57,30.40,4.70,26.77,1014.15,2032.99,2529.89,2671.07,2876.40,349.74,346.33,25.41,0000 0000 0000 0000 000000
2014-10-14 09:44:02,0.27,2.45,0.00,23.22,27.57,30.39,4.78,26.62,1014.15,2032.99,2527.25,2668.85,2874.12,350.03,346.68,25.44,0000 0000 0000 0000 000000
2014-10-14 09:49:03,0.22,2.46,0.00,23.22,27.57,30.42,4.79,26.61,1014.16,2032.99,2525.13,2667.20,2872.36,349.69,346.37,25.47,0000 0000 0000 0000 000000
2014-10-14 09:54:05,0.33,2.47,0.00,23.21,27.57,30.42,4.79,26.66,1014.17,2033.00,2522.60,2665.34,2870.37,350.02,346.64,25.50,0000 0000 0000 0000 000000
2014-10-14 09:59:06,0.23,2.48,0.00,23.23,27.57,30.41,4.73,26.68,1014.17,2033.00,2520.44,2663.51,2868.43,349.91,346.38,25.53,0000 0000 0000 0000 000000
2014-10-14 10:04:07,0.11,2.48,0.00,23.22,27.57,30.40,4.79,26.71,1014.17,2032.99,2519.65,2662.57,2867.51,349.85,346.21,25.56,0000 0000 0000 0000 000000
2014-10-14 10:09:08,0.17,2.49,0.00,23.22,27.58,30.42,4.80,26.65,1014.17,2032.98,2518.00,2661.31,2866.13,349.83,346.43,25.59,0000 0000 0000 0000 000000
2014-10-14 10:14:10,0.20,2.49,0.00,23.22,27.60,30.38,4.84,26.66,1014.17,2032.97,2516.26,2660.01,2864.79,350.37,347.08,25.62,0000 0000 0000 0000 000000
2014-10-14 10:19:11,0.16,2.50,0.00,23.18,27.60,30.40,4.78,26.51,1014.17,2032.98,2514.59,2659.04,2863.62,349.54,346.18,25.65,0000 0000 0000 0000 000000
2014-10-14 10:24:12,0.15,2.50,0.00,23.19,27.60,30.43,4.76,26.66,1014.17,2032.99,2513.18,2658.07,2862.66,349.58,346.24,25.68,0000 0000 0000 0000 000000
2014-10-14 10:29:14,0.20,2.51,0.00,23.21,27.60,30.44,4.78,26.56,1014.17,2032.99,2511.46,2656.74,2861.25,350.07,346.64,25.71,0000 0000 0000 0000 000000
2014-10-14 10:34:15,0.25,2.51,0.00,23.24,27.60,30.44,4.72,26.58,1014.18,2032.97,2509.64,2655.09,2859.45,349.92,346.36,25.74,0000 0000 0000 0000 000000
2014-10-14 10:39:16,0.26,2.52,0.00,23.22,27.60,30.47,4.76,26.73,1014.18,2032.96,2507.23,2653.35,2857.54,349.78,346.37,25.76,0000 0000 0000 0000 000000
2014-10-14 10:44:17,0.21,2.53,0.00,23.24,27.61,30.47,4.77,26.64,1014.18,2032.97,2505.51,2651.83,2856.00,349.84,346.40,25.79,0000 0000 0000 0000 000000
2014-10-14 10:49:19,0.18,2.53,0.00,23.22,27.62,30.46,4.69,26.62,1014.18,2032.98,2503.69,2650.64,2854.76,349.30,345.97,25.82,0000 0000 0000 0000 000000
2014-10-14 10:54:20,0.09,2.54,0.00,23.24,27.62,30.48,4.76,26.60,1014.19,2032.96,2502.30,2649.90,2853.90,349.67,346.09,25.85,0000 0000 0000 0000 000000
2014-10-14 10:59:21,0.12,2.54,0.00,23.24,27.62,30.47,4.74,26.69,1014.20,2032.96,2501.31,2649.06,2853.04,349.75,346.34,25.88,0000 0000 0000 0000 000000
2014-10-14 11:04:23,0.12,2.54,0.00,23.22,27.62,30.49,4.76,26.57,1014.20,2032.95,2500.42,2648.29,2852.22,350.17,346.85,25.91,0000 0000 0000 0000 000000
2014-10-14 11:09:24,0.11,2.55,0.00,23.23,27.63,30.49,4.81,26.63,1014.19,2032.97,2499.47,2647.68,2851.51,350.29,346.89,25.94,0000 0000 0000 0000 000000
2014-10-14 11:14:25,0.13,2.55,0.00,23.24,27.64,30.48,4.79,26.57,1014.19,2032.98,2498.23,2646.74,2850.56,349.94,346.48,25.97,0000 0000 0000 0000 000000
2014-10-14 11:19:26,0.13,2.56,0.00,23.22,27.65,30.46,4.76,26.58,1014.20,2032.97,2496.89,2645.82,2849.49,350.32,346.78,26.00,0000 0000 0000 0000 000000
2014-10-14 11:24:28,0.14,2.56,0.00,23.21,27.65,30.50,4.82,26.62,1014.19,2032.97,2495.71,2644.82,2848.52,350.34,346.98,26.03,0000 0000 0000 0000 000000
2014-10-14 11:29:29,0.12,2.56,0.00,23.21,27.65,30.51,4.76,26.57,1014.19,2032.96,2494.56,2643.94,2847.46,350.11,346.69,26.06,0000 0000 0000 0000 000000
2014-10-14 11:34:30,0.14,2.57,0.00,23.24,27.65,30.52,4.82,26.60,1014.18,2032.97,2493.35,2643.01,2846.46,350.05,346.59,26.09,0000 0000 0000 0000 000000
2014-10-14 11:39:31,0.13,2.57,0.00,23.22,27.65,30.51,4.78,26.73,1014.18,2032.95,2491.95,2642.08,2845.39,349.74,346.44,26.12,0000 0000 0000 0000 000000
2014-10-14 11:44:32,0.13,2.58,0.00,23.23,27.65,30.49,4.76,26.71,1014.18,2032.96,2490.82,2641.27,2844.72,350.11,346.67,26.15,0000 0000 0000 0000 000000
2014-10-14 11:49:33,0.05,2.58,0.00,23.23,27.67,30.53,4.73,26.63,1014.19,2032.97,2489.99,2640.99,2844.03,349.61,346.28,26.17,0000 0000 0000 0000 000000
2014-10-14 11:54:35,0.11,2.58,0.00,23.26,27.67,30.53,4.74,26.63,1014.19,2032.98,2489.16,2640.33,2843.61,350.26,346.57,26.20,0000 0000 0000 0000 000000
2014-10-14 11:59:36,0.05,2.58,0.00,23.23,27.67,30.51,4.73,26.68,1014.19,2032.99,2488.47,2639.98,2843.00,349.38,346.00,26.23,0000 0000 0000 0000 000000
2014-10-14 12:04:38,0.10,2.59,0.00,23.22,27.67,30.48,4.79,26.58,1014.19,2032.98,2487.76,2639.26,2842.34,350.17,346.87,26.26,0000 0000 0000 0000 000000
2014-10-14 12:09:39,0.03,2.59,0.00,23.23,27.67,30.52,4.76,26.63,1014.19,2032.97,2486.98,2638.97,2841.93,350.29,346.81,26.29,0000 0000 0000 0000 000000
2014-10-14 12:14:40,0.12,2.59,0.00,23.24,27.67,30.51,4.80,26.69,1014.18,2032.97,2486.11,2638.22,2841.16,350.18,346.68,26.32,0000 0000 0000 0000 000000
2014-10-14 12:19:42,0.04,2.59,0.00,23.20,27.67,30.52,4.76,26.68,1014.18,2032.99,2485.56,2637.98,2840.94,349.71,346.36,26.35,0000 0000 0000 0000 000000
2014-10-14 12:24:43,0.09,2.59,0.00,23.23,27.68,30.51,4.71,26.66,1014.18,2032.99,2484.90,2637.39,2840.18,349.87,346.51,26.38,0000 0000 0000 0000 000000
2014-10-14 12:29:44,0.06,2.60,0.00,23.24,27.68,30.54,4.83,26.68,1014.18,2032.99,2484.06,2636.98,2839.76,349.71,346.10,26.41,0000 0000 0000 0000 000000
2014-10-14 12:34:45,0.11,2.60,0.00,23.21,27.69,30.53,4.79,26.74,1014.18,2032.98,2483.18,2636.28,2839.04,350.01,346.86,26.44,0000 0000 0000 0000 000000
2014-10-14 12:39:47,0.07,2.60,0.00,23.20,27.69,30.52,4.70,26.70,1014.18,2032.96,2482.26,2635.98,2838.43,349.92,346.55,26.47,0000 0000 0000 0000 000000
2014-10-14 12:44:48,0.07,2.60,0.00,23.22,27.70,30.51,4.79,26.65,1014.18,2032.98,2481.87,2635.32,2838.00,349.94,346.45,26.50,0000 0000 0000 0000 000000
2014-10-14 12:49:49,0.06,2.61,0.00,23.27,27.70,30.55,4.73,26.62,1014.18,2032.96,2481.08,2634.99,2837.40,350.01,346.34,26.53,0000 0000 0000 0000 000000
2014-10-14 12:54:50,0.09,2.61,0.00,23.23,27.70,30.56,4.78,26.64,1014.19,2032.96,2480.50,2634.34,2837.00,350.40,346.99,26.56,0000 0000 0000 0000 000000
2014-10-14 12:59:52,0.04,2.61,0.00,23.26,27.70,30.56,4.79,26.67,1014.18,2032.97,2479.98,2634.00,2836.42,350.39,346.81,26.58,0000 0000 0000 0000 000000